[[{"header":{"parameterUnit":"m.s-1","parameterCategory":1,"la1":30.2992,"la2":30.254,"lo1":-89.0895,"lo2":-89.0443,"dy":0.0025,"dx":0.0025,"nx":19,"ny":19,"refTime":"2026-04-15T03:00:00:Z","depth":0,"parameterNumber":2,"parameterNumberName":"U-component_of_WINDS"},"data":[0,0,0,-3.391,-3.391,-3.3908,-3.3908,-3.3913,-3.3913,0,0,0,0,0,0,0,0,0,0,0,-3.3915,-3.3916,-3.391,-3.391,-3.3908,-3.3908,-3.3913,-3.3913,0,0,0,0,0,0,0,0,0,0,0,-3.3915,-3.3915,-3.3916,-3.391,-3.3908,-3.3908,-3.3913,-3.3912,0,0,0,0,0,0,0,0,0,0,-3.3912,-3.3922,-3.3915,-3.3916,-3.391,-3.3908,-3.3908,-3.3911,-3.3912,-3.3917,0,-3.3923,0,-3.3918,-3.3914,-3.3914,0,0,0,-3.3906,-3.3922,-3.3917,-3.3916,-3.391,-3.3908,-3.3908,-3.3911,-3.3912,-3.3917,-3.3923,-3.3923,-3.3918,-3.3914,-3.3914,-3.3957,-3.3957,0,0,-3.3907,-3.3917,-3.3917,-3.3917,-3.3918,-3.3908,-3.3908,-3.3911,-3.3918,-3.3923,-3.3923,-3.3918,-3.3914,-3.3914,-3.3957,-3.3957,0,0,0,-3.3909,-3.3918,-3.3912,-3.3917,-3.3916,-3.3908,-3.3908,-3.3918,-3.3916,-3.3923,-3.3918,-3.3914,-3.3914,-3.3956,-3.3957,-3.3984,0,0,0,-3.3909,-3.3919,-3.3913,-3.3919,-3.3916,-3.3917,-3.3914,-3.3915,-3.3915,-3.3918,-3.3914,-3.3914,-3.3956,-3.3956,-3.3982,-3.3994,0,0,0,-3.3914,-3.392,-3.3921,-3.392,-3.3919,-3.3917,-3.3914,-3.3915,-3.3913,-3.3914,-3.3914,-3.3955,-3.3956,-3.3981,-3.3991,-3.4007,0,0,0,-3.3922,-3.3945,-3.3922,-3.3946,-3.3919,-3.3934,-3.3914,-3.3925,-3.3929,-3.3914,-3.3956,-3.3957,-3.398,-3.399,-3.4005,-3.402,-3.4027,0,0,-3.3957,-3.395,-3.3964,-3.3942,-3.3964,-3.3934,-3.396,-3.3954,-3.3944,-3.3953,-3.3954,-3.3983,-3.3991,-3.4006,-3.4072,-3.4078,0,0,0,-3.3978,-3.3988,-3.3992,-3.3996,-3.3993,-3.399,-3.398,-3.3978,-3.3985,-3.3951,-3.3993,-3.3998,-3.4007,-3.4013,-3.4018,-3.4024,-3.3961,-3.3961,-3.3961,-3.4042,-3.4029,-3.4051,-3.4038,-3.4043,-3.4033,-3.4035,-3.4031,-3.4017,-3.4027,-3.4028,-3.407,-3.4077,-3.4081,-3.4088,-3.4038,-3.4038,-3.4038,-3.4038,-3.409,-3.4101,-3.4083,-3.4097,-3.4084,-3.4096,-3.4088,-3.4078,-3.4087,-3.4067,-3.4074,-3.4051,-3.4088,-3.4093,-3.404,-3.4039,-3.4039,-3.4039,-3.4039,-3.4127,-3.413,-3.4129,-3.4134,-3.4141,-3.4128,-3.4138,-3.4126,-3.4116,-3.4123,-3.4122,-3.4121,-3.4117,-3.4124,-3.4124,-3.4124,-3.4124,-3.4124,-3.4124,-3.4166,-3.4163,-3.4172,-3.4172,-3.4173,-3.4174,-3.4166,-3.4167,-3.4166,-3.4156,-3.4156,-3.414,-3.4096,-3.4083,-3.4126,-3.4126,-3.4126,-3.4126,-3.4126,-3.4214,-3.4202,-3.4216,-3.4218,-3.4217,-3.4223,-3.421,-3.4214,-3.4214,-3.4219,-3.4203,-3.4173,-3.4164,-3.416,-3.4149,-3.4207,-3.4207,-3.4207,-3.4207,-3.4243,-3.4239,-3.4251,-3.4255,-3.4257,-3.4247,-3.4263,-3.4258,-3.425,-3.4249,-3.424,-3.4226,-3.4222,-3.4215,-3.421,-3.4199,-3.4269,-3.4269,-3.4269,-3.4271,-3.4267,-3.4282,-3.4275,-3.4274,-3.4273,-3.4288,-3.4293,-3.4282,-3.4271,-3.4248,-3.4245,-3.4222,-3.4216,-3.4201,-3.4193,-3.4174,0,0]},{"header":{"parameterUnit":"m.s-1","parameterCategory":1,"la1":30.2992,"la2":30.254,"lo1":-89.0895,"lo2":-89.0443,"dy":0.0025,"dx":0.0025,"nx":19,"ny":19,"refTime":"2026-04-15T03:00:00:Z","depth":0,"parameterNumber":3,"parameterNumberName":"V-component_of_WINDS"},"data":[0,0,0,3.4541,3.4541,3.454,3.454,3.4527,3.4527,0,0,0,0,0,0,0,0,0,0,0,3.4537,3.4537,3.4541,3.4541,3.454,3.454,3.4527,3.4527,0,0,0,0,0,0,0,0,0,0,0,3.4537,3.4537,3.4536,3.4541,3.454,3.454,3.4527,3.4532,0,0,0,0,0,0,0,0,0,0,3.4535,3.4526,3.4537,3.4536,3.4541,3.454,3.454,3.4532,3.4531,3.4524,0,3.4517,0,3.4522,3.4526,3.4526,0,0,0,3.4544,3.4527,3.4531,3.4536,3.4541,3.454,3.4541,3.4532,3.4531,3.4523,3.4517,3.4517,3.4522,3.4525,3.4525,3.4475,3.4474,0,0,3.4544,3.4533,3.4532,3.453,3.4532,3.4541,3.4541,3.4532,3.4524,3.4517,3.4517,3.4522,3.4525,3.4525,3.4475,3.4475,0,0,0,3.4542,3.4533,3.4538,3.4531,3.4531,3.4541,3.4541,3.4524,3.4527,3.4517,3.4521,3.4525,3.4525,3.4476,3.4475,3.4446,0,0,0,3.4543,3.4532,3.4538,3.4531,3.4531,3.4528,3.4533,3.4527,3.4527,3.4521,3.4525,3.4525,3.4476,3.4475,3.4448,3.4434,0,0,0,3.4538,3.4532,3.453,3.453,3.453,3.4528,3.4531,3.4527,3.4529,3.4526,3.4525,3.4476,3.4475,3.4449,3.4436,3.4417,0,0,0,3.453,3.4503,3.4529,3.4501,3.453,3.4511,3.4531,3.4517,3.451,3.4525,3.4476,3.4475,3.445,3.4438,3.4419,3.44,3.4391,0,0,3.449,3.4498,3.4482,3.4505,3.448,3.4512,3.4481,3.4485,3.4493,3.448,3.4479,3.4447,3.4436,3.4418,3.4345,3.4337,0,0,0,3.4465,3.4453,3.4449,3.4443,3.4446,3.4447,3.4457,3.4458,3.4448,3.4485,3.4436,3.443,3.4419,3.441,3.4404,3.4396,3.4471,3.4471,3.4471,3.4391,3.4405,3.438,3.4394,3.4388,3.4399,3.4395,3.4399,3.4413,3.4402,3.4398,3.4352,3.4341,3.4336,3.4328,3.4389,3.4389,3.4388,3.4388,3.4332,3.4318,3.4341,3.4324,3.4339,3.4325,3.4334,3.4345,3.4334,3.4355,3.4347,3.4369,3.4328,3.4321,3.4386,3.4387,3.4387,3.4387,3.4387,3.4285,3.4281,3.4284,3.4278,3.4271,3.4286,3.4274,3.4288,3.4301,3.4292,3.429,3.429,3.4292,3.429,3.429,3.429,3.429,3.429,3.429,3.4235,3.424,3.4229,3.4231,3.4229,3.4229,3.424,3.4239,3.424,3.4251,3.4251,3.4267,3.4322,3.4335,3.4287,3.4288,3.4288,3.4288,3.4288,3.417,3.4187,3.417,3.4169,3.4173,3.4165,3.4183,3.4179,3.418,3.4173,3.4192,3.423,3.4239,3.4244,3.4255,3.4189,3.4189,3.4189,3.4189,3.413,3.4136,3.4123,3.412,3.4118,3.4134,3.4114,3.4122,3.4133,3.4134,3.4146,3.4162,3.4167,3.4173,3.4179,3.419,3.4109,3.4109,3.4109,3.4091,3.4098,3.4079,3.4092,3.4096,3.4099,3.4081,3.4075,3.4091,3.4106,3.4136,3.4139,3.4165,3.4173,3.4187,3.4197,3.4217,0,0]}]]